Overview Statistics Trail Chart Weather Telemetry Raw packets
 

This is the latest recevied weather packets stored in our database for station/object KC1TEM-13. If no packets are shown the sender has not sent any weather packets the latest 10 day(s).

<< 7 8 9 10 11 12 13 >>
Time Temp. Humidity Pressure Rain* Wind** Luminosity Snow
1788567142 20° C 82% 1009.9 hPa 0 mm - 0 W/m² -
1788566837 20° C 82% 1009.7 hPa 0 mm - 0 W/m² -
1788566533 20.56° C 80% 1009.8 hPa 0 mm - 0 W/m² -
1788566228 20.56° C 80% 1009.8 hPa 0 mm - 0 W/m² -
1788565923 20.56° C 79% 1009.7 hPa 0 mm - 0 W/m² -
1788565623 20.56° C 79% 1009.6 hPa 0 mm - 0 W/m² -
1788565319 21.11° C 78% 1009.6 hPa 0 mm - 0 W/m² -
1788565014 21.11° C 76% 1009.6 hPa 0 mm - 0 W/m² -
1788564710 21.67° C 76% 1009.3 hPa 0 mm - 0 W/m² -
1788564407 21.67° C 76% 1009.5 hPa 0 mm - 0 W/m² -
1788564102 21.67° C 74% 1009.3 hPa 0 mm - 1 W/m² -
1788563798 21.67° C 74% 1009.4 hPa 0 mm - 1 W/m² -
1788563493 21.67° C 74% 1009.2 hPa 0 mm - 2 W/m² -
1788563192 22.22° C 74% 1009.3 hPa 0 mm - 3 W/m² -
1788562888 22.22° C 73% 1009.4 hPa 0 mm - 5 W/m² -
1788562585 22.78° C 72% 1009.4 hPa 0 mm - 8 W/m² -
1788562280 22.78° C 72% 1009.3 hPa 0 mm - 11 W/m² -
1788561975 22.78° C 71% 1009.4 hPa 0 mm - 12 W/m² -
1788561669 23.33° C 70% 1009.2 hPa 0 mm - 11 W/m² -
1788561369 23.33° C 69% 1009.2 hPa 0 mm - 10 W/m² -
1788561064 23.89° C 69% 1009.2 hPa 0 mm - 13 W/m² -
1788560760 23.89° C 66% 1009.2 hPa 0 mm - 17 W/m² -
1788560456 23.89° C 68% 1009.2 hPa 0 mm - 28 W/m² -
1788560155 23.89° C 64% 1009.1 hPa 0 mm - 35 W/m² -
1788559850 23.89° C 64% 1009.2 hPa 0 mm - 36 W/m² -

* Rain latest hour (hover to see other rain measurements)
** Current wind speed in m/s (hover to see current wind gust speed)